• In Deutschland
  • Länderverzeichnis
  • Für 7 Tage
  • Wassertemperatur
  • Satellitenkarten
  • Wetterkarte
  • Widgets
  • user-avatar
    Anmelden

    Stündliche Wetter Perth

    Heute, 21 August, Montag

    Zeit Temperatur Niederschläge Wind Luftdruck Luftfeuchtigkeit
    00:00 +11°C° 0 mm 1 m/S 766 mmHg 84%
    01:00 +10°C° 0 mm 1 m/S 766 mmHg 85%
    02:00 +10°C° 0 mm 1 m/S 765 mmHg 88%
    03:00 +10°C° 0 mm 1 m/S 765 mmHg 88%
    04:00 +8°C° 0 mm 2 m/S 765 mmHg 89%
    05:00 +8°C° 0 mm 2 m/S 765 mmHg 89%
    06:00 +9°C° 0 mm 2 m/S 765 mmHg 87%
    07:00 +9°C° 0 mm 2 m/S 765 mmHg 85%
    08:00 +11°C° 0 mm 3 m/S 765 mmHg 83%
    09:00 +12°C° 0 mm 3 m/S 765 mmHg 77%
    10:00 +14°C° 0 mm 3 m/S 765 mmHg 72%
    11:00 +17°C° 0 mm 3 m/S 765 mmHg 66%
    12:00 +17°C° 0,1 mm 3 m/S 764 mmHg 66%
    13:00 +18°C° 0,1 mm 3 m/S 764 mmHg 66%
    14:00 +18°C° 0,1 mm 3 m/S 763 mmHg 66%
    15:00 +17°C° 0,1 mm 3 m/S 763 mmHg 70%
    16:00 +17°C° 0,1 mm 2 m/S 763 mmHg 74%
    17:00 +16°C° 0,1 mm 2 m/S 763 mmHg 78%
    18:00 +16°C° 0,1 mm 2 m/S 763 mmHg 80%
    19:00 +15°C° 0,1 mm 2 m/S 764 mmHg 82%
    20:00 +14°C° 0,1 mm 2 m/S 764 mmHg 84%
    21:00 +14°C° 0 mm 1 m/S 764 mmHg 84%
    22:00 +13°C° 0 mm 1 m/S 764 mmHg 85%
    23:00 +13°C° 0 mm 1 m/S 764 mmHg 86%

    Morgen, 22 August, Dienstag

    Zeit Temperatur Niederschläge Wind Luftdruck Luftfeuchtigkeit
    00:00 +12°C° 0 mm 1 m/S 764 mmHg 86%
    01:00 +12°C° 0 mm 1 m/S 764 mmHg 87%
    02:00 +12°C° 0 mm 1 m/S 764 mmHg 87%
    03:00 +11°C° 0 mm 1 m/S 763 mmHg 88%
    04:00 +11°C° 0 mm 1 m/S 763 mmHg 88%
    05:00 +11°C° 0 mm 1 m/S 763 mmHg 89%
    06:00 +11°C° 0 mm 1 m/S 763 mmHg 88%
    07:00 +12°C° 0 mm 1 m/S 764 mmHg 87%
    08:00 +12°C° 0 mm 1 m/S 764 mmHg 86%
    09:00 +14°C° 0 mm 1 m/S 764 mmHg 77%
    10:00 +18°C° 0 mm 1 m/S 764 mmHg 68%
    11:00 +20°C° 0 mm 1 m/S 764 mmHg 58%
    12:00 +20°C° 0 mm 1 m/S 764 mmHg 57%
    13:00 +19°C° 0 mm 2 m/S 763 mmHg 57%
    14:00 +19°C° 0 mm 2 m/S 763 mmHg 56%
    15:00 +19°C° 0 mm 2 m/S 763 mmHg 60%
    16:00 +18°C° 0 mm 2 m/S 764 mmHg 64%
    17:00 +18°C° 0 mm 3 m/S 764 mmHg 68%
    18:00 +16°C° 0 mm 3 m/S 764 mmHg 74%
    19:00 +14°C° 0 mm 3 m/S 765 mmHg 80%
    20:00 +13°C° 0 mm 3 m/S 766 mmHg 85%
    21:00 +12°C° 0 mm 3 m/S 766 mmHg 87%
    22:00 +12°C° 0 mm 4 m/S 766 mmHg 89%
    23:00 +11°C° 0 mm 4 m/S 767 mmHg 90%

    übermorgen, 23 August, Mittwoch

    Zeit Temperatur Niederschläge Wind Luftdruck Luftfeuchtigkeit
    00:00 +11°C° 0 mm 4 m/S 767 mmHg 91%
    01:00 +11°C° 0 mm 4 m/S 767 mmHg 91%
    02:00 +11°C° 0 mm 4 m/S 767 mmHg 92%
    03:00 +10°C° 0 mm 4 m/S 767 mmHg 91%
    04:00 +9°C° 0 mm 5 m/S 767 mmHg 91%
    05:00 +9°C° 0 mm 5 m/S 767 mmHg 90%
    06:00 +9°C° 0 mm 5 m/S 767 mmHg 88%
    07:00 +10°C° 0 mm 5 m/S 768 mmHg 86%
    08:00 +10°C° 0 mm 5 m/S 768 mmHg 84%
    09:00 +13°C° 0 mm 5 m/S 768 mmHg 78%
    10:00 +14°C° 0 mm 5 m/S 768 mmHg 72%
    11:00 +17°C° 0 mm 4 m/S 768 mmHg 66%
    12:00 +18°C° 0 mm 4 m/S 768 mmHg 64%
    13:00 +19°C° 0 mm 4 m/S 767 mmHg 61%
    14:00 +20°C° 0 mm 4 m/S 766 mmHg 58%
    15:00 +19°C° 0 mm 4 m/S 767 mmHg 61%
    16:00 +19°C° 0 mm 4 m/S 767 mmHg 63%
    17:00 +18°C° 0 mm 4 m/S 767 mmHg 66%
    18:00 +17°C° 0 mm 4 m/S 767 mmHg 68%
    19:00 +15°C° 0 mm 5 m/S 768 mmHg 71%
    20:00 +13°C° 0 mm 5 m/S 768 mmHg 73%
    21:00 +13°C° 0 mm 5 m/S 768 mmHg 73%
    22:00 +12°C° 0 mm 5 m/S 768 mmHg 72%
    23:00 +12°C° 0 mm 5 m/S 768 mmHg 72%

    24 August, Donnerstag

    Zeit Temperatur Niederschläge Wind Luftdruck Luftfeuchtigkeit
    00:00 +10°C° 0 mm 5 m/S 768 mmHg 73%
    01:00 +10°C° 0 mm 5 m/S 768 mmHg 75%
    02:00 +9°C° 0 mm 5 m/S 768 mmHg 76%
    03:00 +9°C° 0 mm 5 m/S 768 mmHg 79%
    04:00 +9°C° 0 mm 5 m/S 768 mmHg 81%
    05:00 +8°C° 0 mm 5 m/S 768 mmHg 83%
    06:00 +9°C° 0 mm 5 m/S 768 mmHg 82%
    07:00 +9°C° 0 mm 5 m/S 768 mmHg 81%
    08:00 +9°C° 0 mm 5 m/S 768 mmHg 81%
    09:00 +12°C° 0 mm 5 m/S 768 mmHg 75%
    10:00 +15°C° 0 mm 4 m/S 768 mmHg 69%
    11:00 +18°C° 0 mm 4 m/S 767 mmHg 64%
    12:00 +19°C° 0 mm 4 m/S 767 mmHg 61%
    13:00 +20°C° 0 mm 4 m/S 766 mmHg 58%
    14:00 +21°C° 0 mm 4 m/S 765 mmHg 55%
    15:00 +20°C° 0 mm 4 m/S 765 mmHg 59%
    16:00 +20°C° 0 mm 4 m/S 765 mmHg 63%
    17:00 +19°C° 0 mm 4 m/S 765 mmHg 68%
    18:00 +18°C° 0 mm 4 m/S 766 mmHg 72%
    19:00 +15°C° 0 mm 5 m/S 767 mmHg 77%
    20:00 +14°C° 0 mm 5 m/S 767 mmHg 82%
    21:00 +13°C° 0 mm 5 m/S 767 mmHg 81%
    22:00 +13°C° 0 mm 5 m/S 767 mmHg 80%
    23:00 +13°C° 0 mm 5 m/S 767 mmHg 78%

    25 August, Freitag

    Zeit Temperatur Niederschläge Wind Luftdruck Luftfeuchtigkeit
    00:00 +12°C° 0 mm 5 m/S 767 mmHg 80%
    01:00 +10°C° 0 mm 5 m/S 767 mmHg 81%
    02:00 +10°C° 0 mm 5 m/S 767 mmHg 82%
    03:00 +10°C° 0 mm 5 m/S 767 mmHg 83%
    04:00 +9°C° 0 mm 5 m/S 767 mmHg 84%
    05:00 +9°C° 0 mm 5 m/S 767 mmHg 85%
    06:00 +9°C° 0 mm 5 m/S 768 mmHg 83%
    07:00 +9°C° 0 mm 5 m/S 768 mmHg 81%
    08:00 +10°C° 0 mm 5 m/S 769 mmHg 79%
    09:00 +12°C° 0 mm 5 m/S 769 mmHg 74%
    10:00 +14°C° 0 mm 5 m/S 769 mmHg 68%
    11:00 +16°C° 0 mm 5 m/S 769 mmHg 62%
    12:00 +17°C° 0 mm 5 m/S 768 mmHg 59%
    13:00 +17°C° 0 mm 5 m/S 768 mmHg 56%
    14:00 +19°C° 0 mm 4 m/S 767 mmHg 53%
    15:00 +19°C° 0 mm 5 m/S 767 mmHg 56%
    16:00 +17°C° 0 mm 5 m/S 767 mmHg 59%
    17:00 +17°C° 0 mm 5 m/S 768 mmHg 62%
    18:00 +15°C° 0 mm 5 m/S 768 mmHg 65%
    19:00 +14°C° 0 mm 6 m/S 769 mmHg 68%
    20:00 +13°C° 0 mm 6 m/S 769 mmHg 72%
    21:00 +13°C° 0 mm 6 m/S 770 mmHg 72%
    22:00 +11°C° 0 mm 6 m/S 770 mmHg 71%
    23:00 +11°C° 0 mm 6 m/S 770 mmHg 71%

    26 August, Samstag

    Zeit Temperatur Niederschläge Wind Luftdruck Luftfeuchtigkeit
    00:00 +10°C° 0 mm 6 m/S 770 mmHg 73%
    01:00 +10°C° 0 mm 6 m/S 770 mmHg 75%
    02:00 +9°C° 0 mm 6 m/S 770 mmHg 77%
    03:00 +9°C° 0 mm 6 m/S 770 mmHg 78%
    04:00 +9°C° 0 mm 6 m/S 770 mmHg 78%
    05:00 +8°C° 0 mm 6 m/S 771 mmHg 79%
    06:00 +9°C° 0 mm 6 m/S 771 mmHg 78%
    07:00 +9°C° 0 mm 7 m/S 771 mmHg 76%
    08:00 +10°C° 0 mm 7 m/S 772 mmHg 75%
    09:00 +11°C° 0 mm 7 m/S 772 mmHg 70%
    10:00 +14°C° 0 mm 7 m/S 771 mmHg 65%
    11:00 +16°C° 0 mm 7 m/S 771 mmHg 60%
    12:00 +16°C° 0 mm 6 m/S 771 mmHg 58%
    13:00 +17°C° 0 mm 6 m/S 770 mmHg 56%
    14:00 +19°C° 0 mm 6 m/S 770 mmHg 54%
    15:00 +17°C° 0 mm 6 m/S 770 mmHg 57%
    16:00 +17°C° 0 mm 5 m/S 770 mmHg 60%
    17:00 +17°C° 0 mm 5 m/S 770 mmHg 63%
    18:00 +15°C° 0 mm 6 m/S 770 mmHg 67%
    19:00 +14°C° 0 mm 6 m/S 771 mmHg 70%
    20:00 +12°C° 0 mm 7 m/S 771 mmHg 74%
    21:00 +11°C° 0 mm 7 m/S 771 mmHg 75%
    22:00 +11°C° 0 mm 7 m/S 772 mmHg 76%
    23:00 +10°C° 0 mm 7 m/S 772 mmHg 77%
    Mehr zeigen